Time,TemperatureF,DewpointF,PressureIn,WindDirection,WindDirectionDegrees,WindSpeedMPH,WindSpeedGustMPH,Humidity,HourlyPrecipIn,Conditions,Clouds,dailyrainin,SoftwareType,DateUTC
2013-07-20 00:01:00,75.7,67.6,29.95,South,177,2.3,3.5,76,0.00,CLR,,0.00,WeatherDisplay:10.37,2013-07-20 04:01:00,
2013-07-20 00:02:00,75.7,67.6,29.95,West,267,1.9,2.3,76,0.00,CLR,,0.00,WeatherDisplay:10.37,2013-07-20 04:02:00,
2013-07-20 00:07:00,75.9,68.2,29.95,WSW,245,0.0,0.0,77,0.00,CLR,,0.00,WeatherDisplay:10.37,2013-07-20 04:07:00,
2013-07-20 00:12:00,75.9,68.6,29.95,West,267,0.0,0.0,78,0.00,CLR,,0.00,WeatherDisplay:10.37,2013-07-20 04:12:00,
2013-07-20 00:17:00,75.9,68.2,29.95,WSW,245,0.0,0.0,77,0.00,CLR,,0.00,WeatherDisplay:10.37,2013-07-20 04:17:00,
2013-07-20 00:22:00,75.9,67.8,29.95,WSW,245,0.0,0.0,76,0.00,CLR,,0.00,WeatherDisplay:10.37,2013-07-20 04:22:00,
2013-07-20 00:27:00,75.7,67.6,29.96,SSW,199,0.0,0.0,76,0.00,CLR,,0.00,WeatherDisplay:10.37,2013-07-20 04:27:00,
2013-07-20 00:32:00,75.7,68.0,29.96,WSW,245,0.0,0.0,77,0.00,CLR,,0.00,WeatherDisplay:10.37,2013-07-20 04:32:00,
2013-07-20 00:37:00,75.6,68.2,29.96,WSW,245,0.0,0.0,78,0.00,CLR,,0.00,WeatherDisplay:10.37,2013-07-20 04:37:00,
2013-07-20 00:42:00,75.4,68.0,29.96,SW,222,0.0,0.0,78,0.00,CLR,,0.00,WeatherDisplay:10.37,2013-07-20 04:42:00,
2013-07-20 00:47:00,75.4,67.7,29.97,South,177,0.0,0.0,77,0.00,CLR,,0.00,WeatherDisplay:10.37,2013-07-20 04:47:00,
2013-07-20 00:52:00,75.0,67.3,29.97,South,177,0.0,0.0,77,0.00,CLR,,0.00,WeatherDisplay:10.37,2013-07-20 04:52:00,
2013-07-20 00:57:00,75.0,67.7,29.96,SSW,199,0.0,0.0,78,0.00,CLR,,0.00,WeatherDisplay:10.37,2013-07-20 04:57:00,
2013-07-20 01:02:00,75.0,68.1,29.97,West,267,0.0,0.0,79,0.00,CLR,,0.00,WeatherDisplay:10.37,2013-07-20 05:02:00,
2013-07-20 01:07:00,75.0,68.4,29.97,WSW,245,0.0,0.0,80,0.00,CLR,,0.00,WeatherDisplay:10.37,2013-07-20 05:07:00,
2013-07-20 01:12:00,74.8,68.3,29.97,WSW,245,0.0,0.0,80,0.00,CLR,,0.00,WeatherDisplay:10.37,2013-07-20 05:12:00,
2013-07-20 01:17:00,74.8,68.3,29.97,West,267,0.0,0.0,80,0.00,CLR,,0.00,WeatherDisplay:10.37,2013-07-20 05:17:00,
2013-07-20 01:22:00,74.8,68.3,29.97,WSW,245,0.0,0.0,80,0.00,CLR,,0.00,WeatherDisplay:10.37,2013-07-20 05:22:00,
2013-07-20 01:27:00,74.8,67.9,29.97,WSW,245,1.3,1.3,79,0.00,CLR,,0.00,WeatherDisplay:10.37,2013-07-20 05:27:00,
2013-07-20 01:32:00,74.5,67.2,29.98,SW,222,0.7,2.3,78,0.00,CLR,,0.00,WeatherDisplay:10.37,2013-07-20 05:32:00,
2013-07-20 01:37:00,74.5,67.2,29.97,WSW,245,0.0,0.0,78,0.00,CLR,,0.00,WeatherDisplay:10.37,2013-07-20 05:37:00,
2013-07-20 01:42:00,74.5,67.2,29.97,WSW,245,0.0,0.0,78,0.00,CLR,,0.00,WeatherDisplay:10.37,2013-07-20 05:42:00,
2013-07-20 01:47:00,74.5,67.2,29.97,SW,222,0.0,0.0,78,0.00,CLR,,0.00,WeatherDisplay:10.37,2013-07-20 05:47:00,
2013-07-20 01:52:00,74.5,67.5,29.97,SW,222,0.0,0.0,79,0.00,CLR,,0.00,WeatherDisplay:10.37,2013-07-20 05:52:00,
2013-07-20 01:57:00,74.5,67.5,29.97,WSW,245,0.0,0.0,79,0.00,CLR,,0.00,WeatherDisplay:10.37,2013-07-20 05:57:00,
2013-07-20 02:02:00,74.5,67.9,29.97,SW,222,1.9,2.3,80,0.00,CLR,,0.00,WeatherDisplay:10.37,2013-07-20 06:02:00,
2013-07-20 02:07:00,74.3,67.4,29.98,SW,222,0.0,0.0,79,0.00,CLR,,0.00,WeatherDisplay:10.37,2013-07-20 06:07:00,
2013-07-20 02:12:00,74.1,67.2,29.97,SSW,199,0.0,0.0,79,0.00,CLR,,0.00,WeatherDisplay:10.37,2013-07-20 06:12:00,
2013-07-20 02:17:00,73.9,66.6,29.97,SSW,199,0.0,0.0,78,0.00,CLR,,0.00,WeatherDisplay:10.37,2013-07-20 06:17:00,
2013-07-20 02:22:00,73.9,66.6,29.97,South,177,0.0,0.0,78,0.00,CLR,,0.00,WeatherDisplay:10.37,2013-07-20 06:22:00,
2013-07-20 02:27:00,73.8,67.2,29.96,WSW,245,0.0,0.0,80,0.00,CLR,,0.00,WeatherDisplay:10.37,2013-07-20 06:27:00,
2013-07-20 02:32:00,73.8,67.2,29.96,WSW,245,0.0,0.0,80,0.00,CLR,,0.00,WeatherDisplay:10.37,2013-07-20 06:32:00,
2013-07-20 02:37:00,73.6,67.4,29.96,SW,222,0.0,0.0,81,0.00,CLR,,0.00,WeatherDisplay:10.37,2013-07-20 06:37:00,
2013-07-20 02:42:00,73.6,67.0,29.95,SSW,199,0.0,0.0,80,0.00,CLR,,0.00,WeatherDisplay:10.37,2013-07-20 06:42:00,
2013-07-20 02:47:00,73.6,67.0,29.95,South,177,0.0,0.0,80,0.00,CLR,,0.00,WeatherDisplay:10.37,2013-07-20 06:47:00,
2013-07-20 02:52:00,73.6,67.0,29.95,South,177,0.0,0.0,80,0.00,CLR,,0.00,WeatherDisplay:10.37,2013-07-20 06:52:00,
2013-07-20 02:57:00,73.6,67.4,29.96,SW,222,0.0,0.0,81,0.00,CLR,,0.00,WeatherDisplay:10.37,2013-07-20 06:57:00,
2013-07-20 03:02:00,73.4,67.2,29.95,SSW,199,0.0,0.0,81,0.00,CLR,,0.00,WeatherDisplay:10.37,2013-07-20 07:02:00,
2013-07-20 03:07:00,73.2,66.7,29.95,South,177,0.0,0.0,80,0.00,CLR,,0.00,WeatherDisplay:10.37,2013-07-20 07:07:00,
2013-07-20 03:12:00,73.2,66.7,29.95,SW,222,0.0,0.0,80,0.00,CLR,,0.00,WeatherDisplay:10.37,2013-07-20 07:12:00,
2013-07-20 03:17:00,73.0,66.5,29.95,SW,222,0.0,0.0,80,0.00,CLR,,0.00,WeatherDisplay:10.37,2013-07-20 07:17:00,
2013-07-20 03:22:00,73.0,67.2,29.95,SW,222,0.0,0.0,82,0.00,CLR,,0.00,WeatherDisplay:10.37,2013-07-20 07:22:00,
2013-07-20 03:27:00,73.0,67.2,29.94,SSW,199,0.0,0.0,82,0.00,CLR,,0.00,WeatherDisplay:10.37,2013-07-20 07:27:00,
2013-07-20 03:32:00,72.7,66.5,29.94,SW,222,0.0,0.0,81,0.00,CLR,,0.00,WeatherDisplay:10.37,2013-07-20 07:32:00,
2013-07-20 03:37:00,72.7,66.2,29.94,SW,222,0.0,0.0,80,0.00,CLR,,0.00,WeatherDisplay:10.37,2013-07-20 07:37:00,
2013-07-20 03:42:00,72.3,65.4,29.93,South,177,0.0,0.0,79,0.00,CLR,,0.00,WeatherDisplay:10.37,2013-07-20 07:42:00,
2013-07-20 03:47:00,72.3,65.4,29.94,SSW,199,0.0,0.0,79,0.00,CLR,,0.00,WeatherDisplay:10.37,2013-07-20 07:47:00,
2013-07-20 03:52:00,72.3,66.5,29.94,SW,222,0.0,0.0,82,0.00,CLR,,0.00,WeatherDisplay:10.37,2013-07-20 07:52:00,
2013-07-20 03:57:00,72.3,66.5,29.94,South,177,0.0,0.0,82,0.00,CLR,,0.00,WeatherDisplay:10.37,2013-07-20 07:57:00,
2013-07-20 04:02:00,72.1,66.3,29.94,SSW,199,0.0,0.0,82,0.00,CLR,,0.00,WeatherDisplay:10.37,2013-07-20 08:02:00,
2013-07-20 04:07:00,72.1,66.0,29.93,SSW,199,0.9,1.1,81,0.00,CLR,,0.00,WeatherDisplay:10.37,2013-07-20 08:07:00,
2013-07-20 04:12:00,72.0,65.8,29.93,SW,222,1.1,1.1,81,0.00,CLR,,0.00,WeatherDisplay:10.37,2013-07-20 08:12:00,
2013-07-20 04:13:00,72.0,65.8,29.93,SW,222,1.1,1.1,81,0.00,CLR,,0.00,WeatherDisplay:10.37,2013-07-20 08:13:00,
2013-07-20 04:18:00,71.8,65.3,29.93,WSW,245,0.0,0.0,80,0.00,CLR,,0.00,WeatherDisplay:10.37,2013-07-20 08:18:00,
2013-07-20 04:23:00,71.8,65.3,29.93,SSW,199,0.0,0.0,80,0.00,CLR,,0.00,WeatherDisplay:10.37,2013-07-20 08:23:00,
2013-07-20 04:28:00,71.8,65.6,29.93,SW,222,1.3,2.3,81,0.00,CLR,,0.00,WeatherDisplay:10.37,2013-07-20 08:28:00,
2013-07-20 04:33:00,71.8,65.6,29.92,SW,222,1.3,1.3,81,0.00,CLR,,0.00,WeatherDisplay:10.37,2013-07-20 08:33:00,
2013-07-20 04:38:00,71.8,65.6,29.92,SSW,199,0.0,0.0,81,0.00,CLR,,0.00,WeatherDisplay:10.37,2013-07-20 08:38:00,
2013-07-20 04:43:00,71.6,65.8,29.92,SW,222,1.3,1.6,82,0.00,CLR,,0.00,WeatherDisplay:10.37,2013-07-20 08:43:00,
2013-07-20 04:48:00,71.4,65.6,29.92,WSW,245,0.0,0.0,82,0.00,CLR,,0.00,WeatherDisplay:10.37,2013-07-20 08:48:00,
2013-07-20 04:53:00,71.6,66.2,29.93,SW,222,0.0,0.0,83,0.00,CLR,,0.00,WeatherDisplay:10.37,2013-07-20 08:53:00,
2013-07-20 04:58:00,71.4,66.0,29.92,SW,222,0.0,0.0,83,0.00,CLR,,0.00,WeatherDisplay:10.37,2013-07-20 08:58:00,
2013-07-20 05:03:00,71.4,65.6,29.93,SSW,199,0.0,0.0,82,0.00,CLR,,0.00,WeatherDisplay:10.37,2013-07-20 09:03:00,
2013-07-20 05:08:00,71.2,65.1,29.93,SW,222,0.0,0.0,81,0.00,CLR,,0.00,WeatherDisplay:10.37,2013-07-20 09:08:00,
2013-07-20 05:13:00,71.2,65.1,29.93,SSW,199,1.1,1.1,81,0.00,CLR,,0.00,WeatherDisplay:10.37,2013-07-20 09:13:00,
2013-07-20 05:18:00,71.2,65.1,29.92,South,177,2.2,2.3,81,0.00,CLR,,0.00,WeatherDisplay:10.37,2013-07-20 09:18:00,
2013-07-20 05:23:00,71.2,65.1,29.93,SW,222,0.0,0.0,81,0.00,CLR,,0.00,WeatherDisplay:10.37,2013-07-20 09:23:00,
2013-07-20 05:28:00,71.2,65.5,29.93,WSW,245,0.0,0.0,82,0.00,CLR,,0.00,WeatherDisplay:10.37,2013-07-20 09:28:00,
2013-07-20 05:33:00,71.2,65.8,29.93,SW,222,2.9,3.5,83,0.00,CLR,,0.00,WeatherDisplay:10.37,2013-07-20 09:33:00,
2013-07-20 05:38:00,71.2,65.5,29.92,SW,222,0.0,0.0,82,0.00,CLR,,0.00,WeatherDisplay:10.37,2013-07-20 09:38:00,
2013-07-20 05:43:00,71.2,65.5,29.93,West,267,0.0,0.0,82,0.00,CLR,,0.00,WeatherDisplay:10.37,2013-07-20 09:43:00,
2013-07-20 05:48:00,71.2,65.8,29.92,SSW,199,0.0,0.0,83,0.00,CLR,,0.00,WeatherDisplay:10.37,2013-07-20 09:48:00,
2013-07-20 05:53:00,71.2,65.5,29.92,SSW,199,0.0,2.3,82,0.00,CLR,,0.00,WeatherDisplay:10.37,2013-07-20 09:53:00,
2013-07-20 05:58:00,71.2,65.5,29.92,SSW,199,2.2,4.6,82,0.00,CLR,,0.00,WeatherDisplay:10.37,2013-07-20 09:58:00,
2013-07-20 06:03:00,71.2,65.5,29.93,WSW,245,0.0,4.6,82,0.00,CLR,,0.00,WeatherDisplay:10.37,2013-07-20 10:03:00,
2013-07-20 06:08:00,71.2,65.5,29.93,South,177,0.0,0.0,82,0.00,CLR,,0.00,WeatherDisplay:10.37,2013-07-20 10:08:00,
2013-07-20 06:13:00,71.2,65.5,29.93,South,177,2.3,3.6,82,0.00,CLR,,0.00,WeatherDisplay:10.37,2013-07-20 10:13:00,
2013-07-20 06:18:00,71.2,65.1,29.93,SW,222,4.5,4.6,81,0.00,CLR,,0.00,WeatherDisplay:10.37,2013-07-20 10:18:00,
2013-07-20 06:23:00,71.1,65.3,29.93,WSW,245,1.5,2.3,82,0.00,CLR,,0.00,WeatherDisplay:10.37,2013-07-20 10:23:00,
2013-07-20 06:28:00,71.1,64.9,29.94,SSW,199,1.1,3.5,81,0.00,CLR,,0.00,WeatherDisplay:10.37,2013-07-20 10:28:00,
2013-07-20 06:33:00,71.1,64.9,29.94,WSW,245,0.0,0.0,81,0.00,CLR,,0.00,WeatherDisplay:10.37,2013-07-20 10:33:00,
2013-07-20 06:38:00,71.2,65.5,29.94,SW,222,3.9,4.6,82,0.00,CLR,,0.00,WeatherDisplay:10.37,2013-07-20 10:38:00,
2013-07-20 06:43:00,71.2,65.1,29.94,WSW,245,0.9,1.1,81,0.00,CLR,,0.00,WeatherDisplay:10.37,2013-07-20 10:43:00,
2013-07-20 06:48:00,71.1,64.9,29.95,West,267,1.6,1.6,81,0.00,CLR,,0.00,WeatherDisplay:10.37,2013-07-20 10:48:00,
2013-07-20 06:53:00,71.2,65.5,29.95,SW,222,0.0,0.0,82,0.00,CLR,,0.00,WeatherDisplay:10.37,2013-07-20 10:53:00,
2013-07-20 06:58:00,71.2,65.1,29.94,SW,222,0.0,0.0,81,0.00,CLR,,0.00,WeatherDisplay:10.37,2013-07-20 10:58:00,
2013-07-20 07:03:00,71.2,65.1,29.95,SW,222,1.1,1.1,81,0.00,CLR,,0.00,WeatherDisplay:10.37,2013-07-20 11:03:00,
2013-07-20 07:08:00,71.2,65.1,29.95,SW,222,0.0,0.0,81,0.00,CLR,,0.00,WeatherDisplay:10.37,2013-07-20 11:08:00,
2013-07-20 07:13:00,71.2,65.1,29.95,SSW,199,3.6,4.0,81,0.00,CLR,,0.00,WeatherDisplay:10.37,2013-07-20 11:13:00,
2013-07-20 07:18:00,71.2,65.1,29.95,South,177,1.8,4.6,81,0.00,CLR,,0.00,WeatherDisplay:10.37,2013-07-20 11:18:00,
2013-07-20 07:23:00,71.4,64.9,29.95,SSW,199,2.0,3.5,80,0.00,CLR,,0.00,WeatherDisplay:10.37,2013-07-20 11:23:00,
2013-07-20 07:28:00,71.4,64.9,29.95,West,267,0.1,1.1,80,0.00,CLR,,0.00,WeatherDisplay:10.37,2013-07-20 11:28:00,
2013-07-20 07:33:00,71.8,65.3,29.95,SW,222,0.0,0.0,80,0.00,CLR,,0.00,WeatherDisplay:10.37,2013-07-20 11:33:00,
2013-07-20 07:38:00,71.8,65.3,29.95,WSW,245,1.2,1.3,80,0.00,CLR,,0.00,WeatherDisplay:10.37,2013-07-20 11:38:00,
2013-07-20 07:43:00,72.0,65.8,29.96,SW,222,0.0,0.0,81,0.00,CLR,,0.00,WeatherDisplay:10.37,2013-07-20 11:43:00,
2013-07-20 07:48:00,72.1,66.0,29.96,SW,222,2.2,2.3,81,0.00,CLR,,0.00,WeatherDisplay:10.37,2013-07-20 11:48:00,
2013-07-20 07:53:00,72.5,65.6,29.96,WSW,245,1.6,3.5,79,0.00,CLR,,0.00,WeatherDisplay:10.37,2013-07-20 11:53:00,
2013-07-20 07:58:00,72.7,66.2,29.96,WSW,245,0.2,1.1,80,0.00,CLR,,0.00,WeatherDisplay:10.37,2013-07-20 11:58:00,
2013-07-20 08:03:00,73.0,66.5,29.96,SW,222,4.0,4.0,80,0.00,CLR,,0.00,WeatherDisplay:10.37,2013-07-20 12:03:00,
2013-07-20 08:08:00,73.4,66.9,29.96,SW,222,1.1,2.3,80,0.00,CLR,,0.00,WeatherDisplay:10.37,2013-07-20 12:08:00,
2013-07-20 08:13:00,73.8,67.2,29.97,SW,222,3.2,3.5,80,0.00,CLR,,0.00,WeatherDisplay:10.37,2013-07-20 12:13:00,
2013-07-20 08:18:00,74.3,68.1,29.97,SW,222,3.0,3.5,81,0.00,CLR,,0.00,WeatherDisplay:10.37,2013-07-20 12:18:00,
2013-07-20 08:23:00,74.8,68.3,29.97,West,267,1.7,2.5,80,0.00,CLR,,0.00,WeatherDisplay:10.37,2013-07-20 12:23:00,
2013-07-20 08:28:00,75.0,68.1,29.97,West,267,3.4,3.5,79,0.00,CLR,,0.00,WeatherDisplay:10.37,2013-07-20 12:28:00,
2013-07-20 08:33:00,75.6,68.6,29.97,WNW,289,3.6,3.6,79,0.00,CLR,,0.00,WeatherDisplay:10.37,2013-07-20 12:33:00,
2013-07-20 08:38:00,76.3,69.3,29.97,WSW,245,4.4,5.8,79,0.00,CLR,,0.00,WeatherDisplay:10.37,2013-07-20 12:38:00,
2013-07-20 08:43:00,77.0,70.0,29.97,WNW,289,4.3,6.9,79,0.00,CLR,,0.00,WeatherDisplay:10.37,2013-07-20 12:43:00,
2013-07-20 08:48:00,77.5,70.5,29.98,West,267,4.9,8.1,79,0.00,CLR,,0.00,WeatherDisplay:10.37,2013-07-20 12:48:00,
2013-07-20 08:53:00,78.4,70.6,29.97,SW,222,2.7,4.6,77,0.00,CLR,,0.00,WeatherDisplay:10.37,2013-07-20 12:53:00,
2013-07-20 08:58:00,79.2,71.7,29.98,WSW,245,2.9,6.9,78,0.00,CLR,,0.00,WeatherDisplay:10.37,2013-07-20 12:58:00,
2013-07-20 09:03:00,79.9,71.6,29.98,WSW,245,2.9,4.6,76,0.00,CLR,,0.00,WeatherDisplay:10.37,2013-07-20 13:03:00,
2013-07-20 09:08:00,80.4,71.8,29.98,SW,222,4.2,4.6,75,0.00,CLR,,0.00,WeatherDisplay:10.37,2013-07-20 13:08:00,
2013-07-20 09:13:00,81.1,72.5,29.98,WSW,245,2.0,2.3,75,0.00,CLR,,0.00,WeatherDisplay:10.37,2013-07-20 13:13:00,
2013-07-20 09:18:00,81.7,72.6,29.97,WSW,245,4.5,4.6,74,0.00,CLR,,0.00,WeatherDisplay:10.37,2013-07-20 13:18:00,
2013-07-20 09:23:00,82.4,72.9,29.97,West,267,3.8,4.6,73,0.00,CLR,,0.00,WeatherDisplay:10.37,2013-07-20 13:23:00,
2013-07-20 09:28:00,82.8,72.8,29.97,West,267,6.7,11.5,72,0.00,CLR,,0.00,WeatherDisplay:10.37,2013-07-20 13:28:00,
2013-07-20 09:33:00,83.1,73.2,29.98,West,267,4.9,9.2,72,0.00,CLR,,0.00,WeatherDisplay:10.37,2013-07-20 13:33:00,
2013-07-20 09:38:00,83.8,73.8,29.97,West,267,5.8,5.8,72,0.00,CLR,,0.00,WeatherDisplay:10.37,2013-07-20 13:38:00,
2013-07-20 09:43:00,84.0,73.6,29.97,WSW,245,4.7,5.8,71,0.00,CLR,,0.00,WeatherDisplay:10.37,2013-07-20 13:43:00,
2013-07-20 09:48:00,85.1,74.6,29.97,WSW,245,4.5,5.8,71,0.00,CLR,,0.00,WeatherDisplay:10.37,2013-07-20 13:48:00,
2013-07-20 09:53:00,85.8,74.0,29.97,NW,312,2.9,3.5,68,0.00,CLR,,0.00,WeatherDisplay:10.37,2013-07-20 13:53:00,
2013-07-20 09:58:00,85.8,74.5,29.97,SSW,199,5.8,9.2,69,0.00,CLR,,0.00,WeatherDisplay:10.37,2013-07-20 13:58:00,
2013-07-20 10:03:00,86.7,74.9,29.96,South,177,8.7,9.2,68,0.00,CLR,,0.00,WeatherDisplay:10.37,2013-07-20 14:03:00,
2013-07-20 10:08:00,87.6,75.3,29.96,SSE,155,4.2,4.6,67,0.00,CLR,,0.00,WeatherDisplay:10.37,2013-07-20 14:08:00,
2013-07-20 10:13:00,88.0,75.2,29.95,SSW,199,8.4,10.4,66,0.00,CLR,,0.00,WeatherDisplay:10.37,2013-07-20 14:13:00,
2013-07-20 10:18:00,88.3,75.5,29.95,South,177,4.2,5.8,66,0.00,CLR,,0.00,WeatherDisplay:10.37,2013-07-20 14:18:00,
2013-07-20 10:23:00,88.9,75.6,29.95,WSW,245,5.2,5.8,65,0.00,CLR,,0.00,WeatherDisplay:10.37,2013-07-20 14:23:00,
2013-07-20 10:28:00,89.6,75.8,29.96,SW,222,6.1,9.2,64,0.00,CLR,,0.00,WeatherDisplay:10.37,2013-07-20 14:28:00,
2013-07-20 10:33:00,90.0,75.7,29.96,SSE,155,11.8,11.8,63,0.00,CLR,,0.00,WeatherDisplay:10.37,2013-07-20 14:33:00,
2013-07-20 10:38:00,90.7,75.9,29.95,South,177,10.4,16.5,62,0.00,CLR,,0.00,WeatherDisplay:10.37,2013-07-20 14:38:00,
2013-07-20 10:43:00,91.0,76.2,29.95,SW,222,7.5,8.1,62,0.00,CLR,,0.00,WeatherDisplay:10.37,2013-07-20 14:43:00,
2013-07-20 10:48:00,91.2,76.9,29.96,WSW,245,8.9,9.2,63,0.00,CLR,,0.00,WeatherDisplay:10.37,2013-07-20 14:48:00,
2013-07-20 10:53:00,91.9,77.1,29.96,SW,222,5.4,6.9,62,0.00,CLR,,0.00,WeatherDisplay:10.37,2013-07-20 14:53:00,
2013-07-20 10:58:00,92.3,76.4,29.95,SSW,199,8.7,9.2,60,0.00,CLR,,0.00,WeatherDisplay:10.37,2013-07-20 14:58:00,
2013-07-20 11:03:00,92.5,76.1,29.96,SW,222,8.7,9.2,59,0.00,CLR,,0.00,WeatherDisplay:10.37,2013-07-20 15:03:00,
2013-07-20 11:08:00,92.8,75.9,29.96,SE,132,8.1,9.2,58,0.00,FEW,,0.00,WeatherDisplay:10.37,2013-07-20 15:08:00,
2013-07-20 11:13:00,93.0,76.6,29.96,SW,222,5.4,5.8,59,0.00,FEW,,0.00,WeatherDisplay:10.37,2013-07-20 15:13:00,
2013-07-20 11:18:00,93.4,76.4,29.97,SW,222,2.7,5.8,58,0.00,FEW,,0.00,WeatherDisplay:10.37,2013-07-20 15:18:00,
2013-07-20 11:23:00,93.7,75.7,29.97,SW,222,7.1,10.4,56,0.00,FEW,,0.00,WeatherDisplay:10.37,2013-07-20 15:23:00,
2013-07-20 11:28:00,93.7,75.7,29.96,West,267,4.7,4.7,56,0.00,FEW,,0.00,WeatherDisplay:10.37,2013-07-20 15:28:00,
2013-07-20 11:33:00,93.9,75.8,29.96,SW,222,3.8,4.6,56,0.00,FEW,,0.00,WeatherDisplay:10.37,2013-07-20 15:33:00,
2013-07-20 11:38:00,94.6,77.0,29.96,South,177,6.3,8.1,57,0.00,FEW,,0.00,WeatherDisplay:10.37,2013-07-20 15:38:00,
2013-07-20 11:43:00,95.4,76.1,29.96,WSW,245,5.0,5.0,54,0.00,FEW,,0.00,WeatherDisplay:10.37,2013-07-20 15:43:00,
2013-07-20 11:48:00,95.0,75.2,29.96,WSW,245,6.0,12.7,53,0.00,FEW,,0.00,WeatherDisplay:10.37,2013-07-20 15:48:00,
2013-07-20 11:53:00,94.8,76.1,29.96,SW,222,2.9,4.6,55,0.00,FEW,,0.00,WeatherDisplay:10.37,2013-07-20 15:53:00,
2013-07-20 11:58:00,94.8,75.6,29.96,SSW,199,13.5,14.1,54,0.00,FEW,,0.00,WeatherDisplay:10.37,2013-07-20 15:58:00,
2013-07-20 12:03:00,95.0,75.7,29.96,SSW,199,7.8,8.1,54,0.00,FEW,,0.00,WeatherDisplay:10.37,2013-07-20 16:03:00,
2013-07-20 12:08:00,95.2,74.2,29.96,WSW,245,4.0,4.0,51,0.00,FEW,,0.00,WeatherDisplay:10.37,2013-07-20 16:08:00,
2013-07-20 12:13:00,93.7,72.9,29.96,SW,222,6.5,9.2,51,0.00,FEW,,0.00,WeatherDisplay:10.37,2013-07-20 16:13:00,
2013-07-20 12:18:00,93.7,75.1,29.96,East,87,5.4,6.9,55,0.00,FEW,,0.00,WeatherDisplay:10.37,2013-07-20 16:18:00,
2013-07-20 12:23:00,94.1,74.9,29.95,South,177,6.7,9.2,54,0.00,FEW,,0.00,WeatherDisplay:10.37,2013-07-20 16:23:00,
2013-07-20 12:28:00,95.4,75.5,29.96,WSW,245,2.7,4.6,53,0.00,FEW,,0.00,WeatherDisplay:10.37,2013-07-20 16:28:00,
2013-07-20 12:33:00,95.4,75.5,29.95,WSW,245,8.2,8.2,53,0.00,FEW,,0.00,WeatherDisplay:10.37,2013-07-20 16:33:00,
2013-07-20 12:38:00,96.1,76.2,29.95,WSW,245,5.1,11.8,53,0.00,FEW,,0.00,WeatherDisplay:10.37,2013-07-20 16:38:00,
2013-07-20 12:43:00,96.8,76.3,29.95,WSW,245,5.1,6.9,52,0.00,FEW,,0.00,WeatherDisplay:10.37,2013-07-20 16:43:00,
2013-07-20 12:48:00,97.2,75.4,29.96,WSW,245,3.1,3.5,50,0.00,FEW,,0.00,WeatherDisplay:10.37,2013-07-20 16:48:00,
2013-07-20 12:53:00,97.3,76.2,29.95,WSW,245,8.7,9.2,51,0.00,FEW,,0.00,WeatherDisplay:10.37,2013-07-20 16:53:00,
2013-07-20 12:58:00,97.2,75.4,29.95,WSW,245,4.5,6.9,50,0.00,FEW,,0.00,WeatherDisplay:10.37,2013-07-20 16:58:00,
2013-07-20 13:03:00,96.4,75.4,29.95,SSW,199,7.4,7.4,51,0.00,FEW,,0.00,WeatherDisplay:10.37,2013-07-20 17:03:00,
2013-07-20 13:08:00,96.6,75.5,29.95,SW,222,5.6,5.8,51,0.00,CLR,,0.00,WeatherDisplay:10.37,2013-07-20 17:08:00,
2013-07-20 13:13:00,97.3,75.6,29.95,West,267,5.8,8.1,50,0.00,CLR,,0.00,WeatherDisplay:10.37,2013-07-20 17:13:00,
2013-07-20 13:18:00,97.9,75.5,29.95,SSE,155,6.8,11.5,49,0.00,CLR,,0.00,WeatherDisplay:10.37,2013-07-20 17:18:00,
2013-07-20 13:23:00,98.2,75.2,29.94,West,267,9.8,10.4,48,0.00,CLR,,0.00,WeatherDisplay:10.37,2013-07-20 17:23:00,
2013-07-20 13:28:00,98.2,75.8,29.95,West,267,9.8,10.4,49,0.00,CLR,,0.00,WeatherDisplay:10.37,2013-07-20 17:28:00,
2013-07-20 13:33:00,98.4,76.0,29.95,SE,132,7.4,7.4,49,0.00,CLR,,0.00,WeatherDisplay:10.37,2013-07-20 17:33:00,
2013-07-20 13:38:00,98.8,75.7,29.94,WSW,245,7.8,9.6,48,0.00,CLR,,0.00,WeatherDisplay:10.37,2013-07-20 17:38:00,
2013-07-20 13:43:00,98.4,74.7,29.94,SSE,155,8.3,8.3,47,0.00,CLR,,0.00,WeatherDisplay:10.37,2013-07-20 17:43:00,
2013-07-20 13:48:00,98.1,75.6,29.94,SSW,199,6.9,6.9,49,0.00,CLR,,0.00,WeatherDisplay:10.37,2013-07-20 17:48:00,
2013-07-20 13:53:00,97.9,74.9,29.94,West,267,3.6,3.6,48,0.00,CLR,,0.00,WeatherDisplay:10.37,2013-07-20 17:53:00,
2013-07-20 13:58:00,97.7,75.3,29.93,SE,132,2.9,3.5,49,0.00,CLR,,0.00,WeatherDisplay:10.37,2013-07-20 17:58:00,
2013-07-20 14:03:00,97.3,75.0,29.93,WSW,245,1.6,5.8,49,0.00,CLR,,0.00,WeatherDisplay:10.37,2013-07-20 18:03:00,
2013-07-20 14:08:00,96.4,74.8,29.93,WSW,245,3.9,6.9,50,0.00,BKN,,0.00,WeatherDisplay:10.37,2013-07-20 18:08:00,
2013-07-20 14:13:00,95.7,73.5,29.93,South,177,5.4,8.1,49,0.00,BKN,,0.00,WeatherDisplay:10.37,2013-07-20 18:13:00,
2013-07-20 14:18:00,95.2,73.6,29.93,SSW,199,7.8,8.1,50,0.00,BKN,,0.00,WeatherDisplay:10.37,2013-07-20 18:18:00,
2013-07-20 14:23:00,95.2,74.2,29.93,WSW,245,6.8,6.9,51,0.00,BKN,,0.00,WeatherDisplay:10.37,2013-07-20 18:23:00,
2013-07-20 14:28:00,95.5,74.5,29.92,SW,222,6.3,10.4,51,0.00,BKN,,0.00,WeatherDisplay:10.37,2013-07-20 18:28:00,
2013-07-20 14:33:00,96.6,74.9,29.92,WSW,245,7.0,8.1,50,0.00,BKN,,0.00,WeatherDisplay:10.37,2013-07-20 18:33:00,
2013-07-20 14:38:00,97.3,75.0,29.92,WSW,245,6.3,6.3,49,0.00,BKN,,0.00,WeatherDisplay:10.37,2013-07-20 18:38:00,
2013-07-20 14:44:00,97.0,74.0,29.92,SW,222,4.6,13.8,48,0.00,BKN,,0.00,WeatherDisplay:10.37,2013-07-20 18:44:00,
2013-07-20 14:49:00,96.8,75.1,29.92,SSW,199,5.6,5.8,50,0.00,BKN,,0.00,WeatherDisplay:10.37,2013-07-20 18:49:00,
2013-07-20 14:54:00,97.2,75.4,29.92,South,177,6.9,6.9,50,0.00,BKN,,0.00,WeatherDisplay:10.37,2013-07-20 18:54:00,
2013-07-20 15:00:00,97.3,75.0,29.92,West,267,8.4,8.5,49,0.00,BKN,,0.00,WeatherDisplay:10.37,2013-07-20 19:00:00,
2013-07-20 15:05:00,97.0,74.7,29.92,WSW,245,4.7,4.7,49,0.00,BKN,,0.00,WeatherDisplay:10.37,2013-07-20 19:05:00,
2013-07-20 15:10:00,96.4,74.2,29.92,WSW,245,6.8,8.1,49,0.00,BKN,,0.00,WeatherDisplay:10.37,2013-07-20 19:10:00,
2013-07-20 15:15:00,96.8,75.1,29.91,WSW,243,8.0,0.0,50,0.00,BKN,,0.00,WeatherDisplay:10.37,2013-07-20 19:15:00,
2013-07-20 15:21:00,97.5,75.1,29.92,SSW,199,3.6,3.6,49,0.00,BKN,,0.00,WeatherDisplay:10.37,2013-07-20 19:21:00,
2013-07-20 15:26:00,97.9,75.5,29.92,SW,222,4.6,6.9,49,0.00,BKN,,0.00,WeatherDisplay:10.37,2013-07-20 19:26:00,
2013-07-20 15:31:00,98.2,75.2,29.92,SW,222,6.9,8.1,48,0.00,BKN,,0.00,WeatherDisplay:10.37,2013-07-20 19:31:00,
2013-07-20 15:36:00,97.9,74.9,29.91,South,177,4.2,11.5,48,0.00,BKN,,0.00,WeatherDisplay:10.37,2013-07-20 19:36:00,
2013-07-20 15:41:00,97.9,74.9,29.91,West,267,8.4,8.5,48,0.00,BKN,,0.00,WeatherDisplay:10.37,2013-07-20 19:41:00,
2013-07-20 15:47:00,97.9,74.9,29.91,SW,222,6.0,8.1,48,0.00,BKN,,0.00,WeatherDisplay:10.37,2013-07-20 19:47:00,
2013-07-20 15:52:00,98.2,75.2,29.91,West,267,6.0,6.0,48,0.00,BKN,,0.00,WeatherDisplay:10.37,2013-07-20 19:52:00,
2013-07-20 15:57:00,98.4,74.7,29.90,SSE,155,4.6,5.1,47,0.00,BKN,,0.00,WeatherDisplay:10.37,2013-07-20 19:57:00,
2013-07-20 16:02:00,98.4,74.7,29.90,South,177,3.8,3.8,47,0.00,BKN,,0.00,WeatherDisplay:10.37,2013-07-20 20:02:00,
2013-07-20 16:07:00,97.7,74.1,29.90,West,267,4.0,6.3,47,0.00,BKN,,0.00,WeatherDisplay:10.37,2013-07-20 20:07:00,
2013-07-20 16:13:00,97.0,74.0,29.90,SSE,155,11.8,11.8,48,0.00,FEW,,0.00,WeatherDisplay:10.37,2013-07-20 20:13:00,
2013-07-20 16:18:00,96.8,74.5,29.90,West,267,8.5,8.5,49,0.00,FEW,,0.00,WeatherDisplay:10.37,2013-07-20 20:18:00,
2013-07-20 16:23:00,96.3,74.0,29.90,WSW,245,5.9,6.9,49,0.00,FEW,,0.00,WeatherDisplay:10.37,2013-07-20 20:23:00,
2013-07-20 16:28:00,95.5,72.7,29.89,SW,222,2.2,7.6,48,0.00,FEW,,0.00,WeatherDisplay:10.37,2013-07-20 20:28:00,
2013-07-20 16:33:00,94.8,72.7,29.89,West,267,4.5,9.2,49,0.00,FEW,,0.00,WeatherDisplay:10.37,2013-07-20 20:33:00,
2013-07-20 16:39:00,94.8,73.3,29.89,West,267,2.9,3.5,50,0.00,FEW,,0.00,WeatherDisplay:10.37,2013-07-20 20:39:00,
2013-07-20 16:44:00,95.4,73.8,29.89,SW,222,3.4,3.5,50,0.00,FEW,,0.00,WeatherDisplay:10.37,2013-07-20 20:44:00,
2013-07-20 16:49:00,95.4,73.8,29.88,West,267,2.2,6.9,50,0.00,FEW,,0.00,WeatherDisplay:10.37,2013-07-20 20:49:00,
2013-07-20 16:54:00,95.5,73.9,29.88,SSW,199,5.6,5.8,50,0.00,FEW,,0.00,WeatherDisplay:10.37,2013-07-20 20:54:00,
2013-07-20 16:59:00,96.1,73.8,29.88,WSW,245,3.2,3.5,49,0.00,FEW,,0.00,WeatherDisplay:10.37,2013-07-20 20:59:00,
2013-07-20 17:04:00,95.7,72.9,29.88,SW,222,6.0,17.3,48,0.00,FEW,,0.00,WeatherDisplay:10.37,2013-07-20 21:04:00,
2013-07-20 17:09:00,94.8,73.3,29.88,South,177,2.2,3.6,50,0.00,FEW,,0.00,WeatherDisplay:10.37,2013-07-20 21:09:00,
2013-07-20 17:14:00,94.8,73.3,29.88,South,177,7.5,9.2,50,0.00,FEW,,0.00,WeatherDisplay:10.37,2013-07-20 21:14:00,
2013-07-20 17:19:00,95.2,73.6,29.88,WSW,245,4.9,12.7,50,0.00,FEW,,0.00,WeatherDisplay:10.37,2013-07-20 21:19:00,
2013-07-20 17:25:00,94.6,73.1,29.88,WNW,289,4.5,4.6,50,0.00,FEW,,0.00,WeatherDisplay:10.37,2013-07-20 21:25:00,
2013-07-20 17:30:00,93.9,72.5,29.88,SSW,199,4.9,4.9,50,0.00,FEW,,0.00,WeatherDisplay:10.37,2013-07-20 21:30:00,
2013-07-20 17:35:00,93.7,72.9,29.88,SW,233,2.0,0.0,51,0.00,FEW,,0.00,WeatherDisplay:10.37,2013-07-20 21:35:00,
2013-07-20 17:40:00,93.9,73.0,29.88,West,267,6.4,8.1,51,0.00,FEW,,0.00,WeatherDisplay:10.37,2013-07-20 21:40:00,
2013-07-20 17:45:00,93.9,73.0,29.88,West,267,5.3,5.8,51,0.00,FEW,,0.00,WeatherDisplay:10.37,2013-07-20 21:45:00,
2013-07-20 17:50:00,94.1,73.2,29.88,SW,230,2.0,0.0,51,0.00,FEW,,0.00,WeatherDisplay:10.37,2013-07-20 21:50:00,
2013-07-20 17:56:00,94.6,73.1,29.88,WSW,245,5.1,5.1,50,0.00,FEW,,0.00,WeatherDisplay:10.37,2013-07-20 21:56:00,
2013-07-20 18:01:00,94.6,72.5,29.88,South,177,3.1,5.1,49,0.00,FEW,,0.00,WeatherDisplay:10.37,2013-07-20 22:01:00,
2013-07-20 18:06:00,94.8,72.7,29.88,WNW,289,1.8,2.3,49,0.00,FEW,,0.00,WeatherDisplay:10.37,2013-07-20 22:06:00,
2013-07-20 18:11:00,94.8,73.3,29.88,West,267,3.1,5.4,50,0.00,FEW,,0.00,WeatherDisplay:10.37,2013-07-20 22:11:00,
2013-07-20 18:16:00,95.2,73.6,29.88,WSW,245,2.2,3.5,50,0.00,FEW,,0.00,WeatherDisplay:10.37,2013-07-20 22:16:00,
2013-07-20 18:22:00,95.0,72.8,29.88,NW,312,2.7,2.7,49,0.00,FEW,,0.00,WeatherDisplay:10.37,2013-07-20 22:22:00,
2013-07-20 18:27:00,93.7,72.3,29.88,WSW,245,0.0,0.0,50,0.00,FEW,,0.00,WeatherDisplay:10.37,2013-07-20 22:27:00,
2013-07-20 18:33:00,93.4,72.5,29.88,SW,222,1.8,2.5,51,0.00,FEW,,0.00,WeatherDisplay:10.37,2013-07-20 22:33:00,
2013-07-20 18:38:00,93.0,71.6,29.89,WSW,245,1.2,2.5,50,0.00,FEW,,0.00,WeatherDisplay:10.37,2013-07-20 22:38:00,
2013-07-20 18:43:00,92.3,72.1,29.88,WSW,245,0.0,0.0,52,0.00,FEW,,0.00,WeatherDisplay:10.37,2013-07-20 22:43:00,
2013-07-20 18:48:00,91.9,72.9,29.88,WSW,245,0.0,0.0,54,0.00,FEW,,0.00,WeatherDisplay:10.37,2013-07-20 22:48:00,
2013-07-20 18:53:00,91.8,73.3,29.88,SSW,199,0.0,0.0,55,0.00,FEW,,0.00,WeatherDisplay:10.37,2013-07-20 22:53:00,
2013-07-20 18:58:00,91.2,72.8,29.88,South,177,0.0,1.1,55,0.00,FEW,,0.00,WeatherDisplay:10.37,2013-07-20 22:58:00,
2013-07-20 19:03:00,90.7,72.8,29.89,West,267,0.0,0.0,56,0.00,FEW,,0.00,WeatherDisplay:10.37,2013-07-20 23:03:00,
2013-07-20 19:08:00,90.7,72.8,29.89,West,267,0.0,0.0,56,0.00,CLR,,0.00,WeatherDisplay:10.37,2013-07-20 23:08:00,
2013-07-20 19:13:00,90.7,73.4,29.88,WSW,245,0.0,1.1,57,0.00,CLR,,0.00,WeatherDisplay:10.37,2013-07-20 23:13:00,
2013-07-20 19:19:00,91.0,73.7,29.88,SW,222,2.7,2.7,57,0.00,CLR,,0.00,WeatherDisplay:10.37,2013-07-20 23:19:00,
2013-07-20 19:24:00,91.0,73.7,29.88,SSE,155,0.0,0.0,57,0.00,CLR,,0.00,WeatherDisplay:10.37,2013-07-20 23:24:00,
2013-07-20 19:29:00,91.0,73.7,29.89,ESE,109,1.3,2.3,57,0.00,CLR,,0.00,WeatherDisplay:10.37,2013-07-20 23:29:00,
2013-07-20 19:34:00,90.7,72.3,29.89,SE,132,2.5,2.5,55,0.00,CLR,,0.00,WeatherDisplay:10.37,2013-07-20 23:34:00,
2013-07-20 19:39:00,90.1,72.3,29.89,South,177,1.6,1.6,56,0.00,CLR,,0.00,WeatherDisplay:10.37,2013-07-20 23:39:00,
2013-07-20 19:44:00,89.8,72.5,29.90,SSE,155,0.0,0.0,57,0.00,CLR,,0.00,WeatherDisplay:10.37,2013-07-20 23:44:00,
2013-07-20 19:50:00,89.8,72.5,29.89,SE,132,0.0,0.0,57,0.00,CLR,,0.00,WeatherDisplay:10.37,2013-07-20 23:50:00,
2013-07-20 19:55:00,89.2,72.5,29.90,SSE,155,0.0,0.0,58,0.00,CLR,,0.00,WeatherDisplay:10.37,2013-07-20 23:55:00,
2013-07-20 20:00:00,88.7,72.0,29.90,South,179,0.0,0.0,58,0.00,CLR,,0.00,WeatherDisplay:10.37,2013-07-21 00:00:00,
2013-07-20 20:05:00,88.0,71.3,29.90,WSW,245,0.0,0.0,58,0.00,CLR,,0.00,WeatherDisplay:10.37,2013-07-21 00:05:00,
2013-07-20 20:10:00,87.1,71.5,29.90,SW,222,0.0,0.0,60,0.00,CLR,,0.00,WeatherDisplay:10.37,2013-07-21 00:10:00,
2013-07-20 20:15:00,86.7,71.7,29.90,South,177,0.0,0.0,61,0.00,CLR,,0.00,WeatherDisplay:10.37,2013-07-21 00:15:00,
2013-07-20 20:21:00,85.8,71.8,29.91,East,87,1.1,1.6,63,0.00,CLR,,0.00,WeatherDisplay:10.37,2013-07-21 00:21:00,
2013-07-20 20:26:00,84.7,71.2,29.91,ENE,65,0.0,0.0,64,0.02,RA,,0.02,WeatherDisplay:10.37,2013-07-21 00:26:00,
2013-07-20 20:31:00,83.1,71.0,29.91,North,357,0.0,0.0,67,0.08,RA,,0.08,WeatherDisplay:10.37,2013-07-21 00:31:00,
2013-07-20 20:36:00,82.2,70.6,29.90,ESE,109,0.0,0.0,68,0.08,RA,,0.08,WeatherDisplay:10.37,2013-07-21 00:36:00,
2013-07-20 20:42:00,81.7,71.4,29.91,ESE,109,0.0,0.0,71,0.08,CLR,,0.08,WeatherDisplay:10.37,2013-07-21 00:42:00,
2013-07-20 20:47:00,81.1,70.4,29.91,WSW,245,0.0,0.0,70,0.08,CLR,,0.08,WeatherDisplay:10.37,2013-07-21 00:47:00,
2013-07-20 20:52:00,80.4,70.6,29.90,West,267,0.0,0.0,72,0.08,CLR,,0.08,WeatherDisplay:10.37,2013-07-21 00:52:00,
2013-07-20 20:57:00,79.9,70.4,29.90,West,267,0.0,0.0,73,0.08,CLR,,0.08,WeatherDisplay:10.37,2013-07-21 00:57:00,
2013-07-20 21:03:00,79.3,70.3,29.90,West,267,0.0,0.0,74,0.08,CLR,,0.08,WeatherDisplay:10.37,2013-07-21 01:03:00,
2013-07-20 21:08:00,79.2,70.5,29.90,WSW,245,0.0,0.0,75,0.08,BKN,,0.08,WeatherDisplay:10.37,2013-07-21 01:08:00,
2013-07-20 21:13:00,79.0,70.4,29.90,SW,222,5.6,5.8,75,0.08,BKN,,0.08,WeatherDisplay:10.37,2013-07-21 01:13:00,
2013-07-20 21:18:00,78.8,70.6,29.90,WSW,245,1.8,2.3,76,0.08,BKN,,0.08,WeatherDisplay:10.37,2013-07-21 01:18:00,
2013-07-20 21:23:00,78.8,70.2,29.90,West,267,1.8,2.3,75,0.08,BKN,,0.08,WeatherDisplay:10.37,2013-07-21 01:23:00,
2013-07-20 21:28:00,78.6,70.4,29.90,West,267,0.0,2.3,76,0.06,BKN,,0.08,WeatherDisplay:10.37,2013-07-21 01:28:00,
2013-07-20 21:33:00,78.6,70.4,29.90,West,267,0.0,0.0,76,0.00,BKN,,0.08,WeatherDisplay:10.37,2013-07-21 01:33:00,
2013-07-20 21:38:00,78.6,70.8,29.91,West,267,0.0,0.0,77,0.00,BKN,,0.08,WeatherDisplay:10.37,2013-07-21 01:38:00,
2013-07-20 21:44:00,78.4,70.6,29.91,WNW,289,0.0,0.0,77,0.00,BKN,,0.08,WeatherDisplay:10.37,2013-07-21 01:44:00,
2013-07-20 21:49:00,78.1,70.7,29.93,NNW,335,18.1,18.4,78,0.00,BKN,,0.08,WeatherDisplay:10.37,2013-07-21 01:49:00,
2013-07-20 21:54:00,77.5,69.8,29.93,NNW,335,20.9,20.9,77,0.00,BKN,,0.08,WeatherDisplay:10.37,2013-07-21 01:54:00,
2013-07-20 21:59:00,77.5,69.8,29.93,NW,312,7.4,7.4,77,0.00,BKN,,0.08,WeatherDisplay:10.37,2013-07-21 01:59:00,
2013-07-20 22:04:00,77.5,69.8,29.93,NNW,335,3.6,3.6,77,0.00,BKN,,0.08,WeatherDisplay:10.37,2013-07-21 02:04:00,
2013-07-20 22:10:00,75.9,67.8,29.93,NNW,335,4.0,4.0,76,0.00,BKN,,0.08,WeatherDisplay:10.37,2013-07-21 02:10:00,
2013-07-20 22:15:00,75.7,67.6,29.94,NNW,335,4.2,11.5,76,0.00,BKN,,0.08,WeatherDisplay:10.37,2013-07-21 02:15:00,
2013-07-20 22:20:00,75.4,67.3,29.94,NNW,335,5.1,5.8,76,0.00,BKN,,0.08,WeatherDisplay:10.37,2013-07-21 02:20:00,
2013-07-20 22:25:00,75.2,67.1,29.93,NNW,335,2.8,4.6,76,0.00,BKN,,0.08,WeatherDisplay:10.37,2013-07-21 02:25:00,
2013-07-20 22:31:00,75.0,66.9,29.94,NNW,335,2.6,5.6,76,0.00,BKN,,0.08,WeatherDisplay:10.37,2013-07-21 02:31:00,
2013-07-20 22:36:00,74.8,66.8,29.94,North,357,0.6,3.5,76,0.00,BKN,,0.08,WeatherDisplay:10.37,2013-07-21 02:36:00,
2013-07-20 22:41:00,74.8,67.1,29.93,NNW,335,6.5,6.9,77,0.00,BKN,,0.08,WeatherDisplay:10.37,2013-07-21 02:41:00,
2013-07-20 22:46:00,74.8,67.1,29.93,North,357,2.3,2.5,77,0.00,BKN,,0.08,WeatherDisplay:10.37,2013-07-21 02:46:00,
2013-07-20 22:51:00,74.7,67.0,29.93,NNE,19,0.0,2.3,77,0.00,BKN,,0.08,WeatherDisplay:10.37,2013-07-21 02:51:00,
2013-07-20 22:56:00,74.7,67.0,29.93,West,267,0.0,0.0,77,0.00,BKN,,0.08,WeatherDisplay:10.37,2013-07-21 02:56:00,
2013-07-20 23:01:00,74.5,66.8,29.94,WNW,289,0.9,2.3,77,0.00,BKN,,0.08,WeatherDisplay:10.37,2013-07-21 03:01:00,
2013-07-20 23:06:00,74.5,67.2,29.93,West,267,0.0,0.0,78,0.00,BKN,,0.08,WeatherDisplay:10.37,2013-07-21 03:06:00,
2013-07-20 23:11:00,74.1,66.8,29.93,West,267,0.2,2.2,78,0.00,-RA,,0.08,WeatherDisplay:10.37,2013-07-21 03:11:00,
2013-07-20 23:16:00,74.1,66.8,29.92,West,267,0.0,0.0,78,0.00,-RA,,0.08,WeatherDisplay:10.37,2013-07-21 03:16:00,
2013-07-20 23:21:00,73.9,66.6,29.92,WSW,245,0.0,0.0,78,0.00,-RA,,0.08,WeatherDisplay:10.37,2013-07-21 03:21:00,
2013-07-20 23:27:00,73.9,66.6,29.92,WSW,245,0.0,0.0,78,0.02,-RA,,0.10,WeatherDisplay:10.37,2013-07-21 03:27:00,
2013-07-20 23:32:00,73.9,66.6,29.92,WSW,245,0.0,0.0,78,0.02,-RA,,0.10,WeatherDisplay:10.37,2013-07-21 03:32:00,
2013-07-20 23:37:00,73.9,66.6,29.92,West,267,0.0,0.0,78,0.02,-RA,,0.10,WeatherDisplay:10.37,2013-07-21 03:37:00,
2013-07-20 23:42:00,73.8,66.8,29.91,SSW,199,0.0,0.0,79,0.02,-RA,,0.10,WeatherDisplay:10.37,2013-07-21 03:42:00,
2013-07-20 23:47:00,73.6,67.0,29.91,ESE,109,0.0,0.0,80,0.02,-RA,,0.10,WeatherDisplay:10.37,2013-07-21 03:47:00,
2013-07-20 23:52:00,73.4,66.9,29.91,ESE,109,0.0,0.0,80,0.02,-RA,,0.10,WeatherDisplay:10.37,2013-07-21 03:52:00,
2013-07-20 23:58:00,73.2,66.7,29.91,SSE,155,0.0,0.0,80,0.02,-RA,,0.10,WeatherDisplay:10.37,2013-07-21 03:58:00,